Miscellaneous Local Product
Issued by NWS Hastings, NE

Home | Current Version | Previous Version | Graphics & Text | Print | Product List | Glossary On
Versions: 1 2 3 4 5 6 7 8 9 10 11 12 13 14 15 16 17 18 19 20 21 22 23 24 25 26 27 28 29 30 31 32 33 34 35 36 37 38 39 40 41 42 43 44 45 46 47 48 49 50
000
AXUS43 KGID 221802
MISGRI

GID CWA HOURLY WEATHER ROUNDUP
NATIONAL WEATHER SERVICE HASTINGS NE
100 PM CDT FRI MAY 22 2015

NOTE: "FAIR" INDICATES FEW OR NO CLOUDS BELOW 12,000 FEET WITH NO
SIGNIFICANT WEATHER AND/OR OBSTRUCTIONS TO VISIBILITY.

...SOUTH CENTRAL NEBRASKA...

CITY           SKY/WX    TMP DP  RH WIND       PRES   REMARKS
GRAND ISLAND   CLOUDY    54  44  69 SE9       30.24F
HASTINGS       LGT RAIN  53  48  83 SE3       30.24R
KEARNEY        CLOUDY    50  45  81 S10       30.24F
ORD            CLOUDY    56  43  61 S14       30.22R
YORK           CLOUDY    55  48  76 CALM      30.25S
AURORA         CLOUDY    55  47  74 SE3       30.25S
LEXINGTON      LGT RAIN  47  45  91 SE14G23   30.22S
HOLDREGE       CLOUDY    48  45  87 E9        30.21S
HEBRON         CLOUDY    58  45  61 SE3       30.24S

...NEBRASKA PANHANDLE...

CITY           SKY/WX    TMP DP  RH WIND       PRES   REMARKS
CHADRON        CLOUDY    57  43  59 SE14G24   30.09F
ALLIANCE       LGT RAIN  49  44  83 SE21      30.10S
SCOTTSBLUFF    LGT RAIN  49  50 100 SE16      30.07F
SIDNEY         LGT RAIN  47  45  93 E16       30.08S

...WESTERN AND NORTH CENTRAL NEBRASKA...

CITY           SKY/WX    TMP DP  RH WIND       PRES   REMARKS
VALENTINE      CLOUDY    60  41  49 S21       30.17S
AINSWORTH      CLOUDY    58  42  54 S20       30.19S
ONEILL         CLOUDY    63  40  42 S16       30.22S
BROKEN BOW     LGT RAIN  50  46  86 SE10      30.23R
IMPERIAL       LGT RAIN  50  47  89 SE18G24   30.10F
NORTH PLATTE   LGT RAIN  48  45  89 SE16      30.17F
MCCOOK         LGT RAIN  50  47  89 SE14      30.14F

...EASTERN NEBRASKA...

CITY           SKY/WX    TMP DP  RH WIND       PRES   REMARKS
NORFOLK        CLOUDY    65  38  36 S13       30.23R
SO SIOUX CITY  CLOUDY    73  39  29 VRB5      30.21F
TEKAMAH        CLOUDY    71  39  31 S10       30.22F
COLUMBUS       CLOUDY    63  39  42 S10       30.28R
ALBION         CLOUDY    60  40  46 S14       30.24S
OMAHA EPPLEY   CLOUDY    68  44  42 SE5       30.23S
OFFUTT AFB     CLOUDY    67  46  47 SE6       30.23S
MILLARD        CLOUDY    67  46  46 SE3       30.23S
LINCOLN        CLOUDY    61  47  59 S5        30.26R
NEBRASKA CITY  CLOUDY    61  42  49 S6        30.25F
BEATRICE       CLOUDY    60  46  60 SE5       30.24S
FALLS CITY     CLOUDY    62  47  57 S6        30.25S

...NORTHERN KANSAS...

CITY           SKY/WX    TMP DP  RH WIND       PRES   REMARKS
GOODLAND       LGT RAIN  49  48  97 SE22G31   30.07S FOG
HILL CITY      CLOUDY    53  48  83 SE10      30.16F
NORTON         CLOUDY    50  45  81 SE10      30.15F
PHILLIPSBURG   CLOUDY    55  52  88 SE7       30.18F
SMITH CENTER   CLOUDY    54  48  82 SE12      30.20F
HAYS           CLOUDY    54  43  66 SE16      30.16F
RUSSELL        CLOUDY    55  48  77 SE17      30.17F
CONCORDIA      CLOUDY    57  47  69 SE8       30.23R
SALINA         CLOUDY    59  50  72 SE13      30.21F
TOPEKA         CLOUDY    62  48  60 SE12      30.25S



USA.gov is the U.S. government's official web portal to all federal, state and local government web resources and services.